GFSFLT2_925_spd_252.txt.gz
Wind_Speed
21 23 30 27 34 40 43 44 41 39 37 36 34 35 35 35 35 32 27 23 20 19 17 15 14 13 12
21 25 28 32 33 34 36 40 42 41 39 38 37 38 39 37 36 34 30 26 22 20 18 17 15 15 13
19 24 29 29 31 32 32 34 35 39 37 36 39 39 40 38 36 35 31 29 25 23 21 20 17 16 15
21 22 24 28 30 27 30 34 36 36 37 36 37 39 39 38 36 35 33 30 28 24 23 23 21 18 16
19 18 20 14 24 32 32 31 33 35 35 36 37 38 40 37 37 35 33 32 29 26 23 21 19 17 15
25 15 24 27 33 34 28 17 8 33 34 35 38 38 41 41 38 36 34 32 29 26 23 21 19 18 17
29 30 25 31 35 28 30 27 24 19 30 24 33 35 37 40 38 37 34 31 29 25 23 21 21 18 18
39 33 26 31 38 39 40 32 23 18 21 13 26 32 31 36 36 35 33 31 29 26 23 20 19 18 20
32 34 33 32 35 30 23 21 12 17 27 19 16 20 26 32 31 32 33 31 28 23 20 20 19 18 21
28 29 30 34 35 39 34 27 17 9 26 23 17 16 6 20 27 29 27 26 22 21 19 17 17 18 21
26 28 28 26 28 37 34 35 24 19 16 30 19 20 7 5 14 24 28 26 23 20 17 17 17 19 21
21 22 22 23 25 29 31 31 27 27 18 27 11 23 14 6 4 15 23 23 24 23 22 24 23 20 21
18 20 22 22 23 22 20 21 19 14 14 26 19 21 19 9 7 9 15 21 24 23 23 20 21 25 27
17 18 17 17 20 21 18 18 15 12 15 17 16 11 14 10 12 14 14 8 11 16 17 20 21 22 24
17 19 18 19 19 19 21 22 13 17 16 14 13 12 12 11 7 7 9 11 11 13 15 20 24 22 21
13 16 17 19 19 19 21 18 20 20 19 17 16 11 4 3 5 6 7 12 12 12 12 15 23 21 21
15 17 18 19 19 21 19 18 18 20 19 17 13 8 2 2 1 5 9 6 6 7 10 13 22 28 26

GFSFLT2_925_spd_255.txt.gz
Wind_Speed
18 17 24 22 25 30 34 36 36 36 37 37 36 34 34 34 34 35 35 32 27 22 20 19 19 17 16
20 19 20 22 25 27 28 30 34 37 38 39 39 38 36 37 37 37 38 36 31 28 22 21 20 18 17
18 18 21 23 23 26 27 29 32 33 34 33 39 41 39 38 38 40 40 38 34 30 27 23 21 20 18
19 21 21 24 23 23 27 30 33 34 34 36 34 37 39 38 39 41 41 38 36 32 30 28 27 22 20
15 17 19 16 18 26 30 31 32 32 35 36 35 36 38 37 39 40 42 39 36 33 31 27 27 25 23
17 12 20 24 29 29 29 18 9 29 31 38 35 36 40 39 42 42 41 38 35 33 32 29 26 22 21
22 22 20 28 31 30 31 27 25 23 20 21 29 34 38 40 39 39 40 36 36 33 32 30 27 24 21
31 29 24 20 26 32 36 33 27 25 23 15 24 32 32 36 36 37 40 37 35 33 33 30 26 22 20
25 26 27 26 25 28 24 19 11 17 27 23 16 21 24 30 33 34 35 34 32 33 30 26 24 21 20
23 24 24 25 24 26 28 23 17 6 21 21 18 14 5 18 30 32 29 31 32 32 27 25 21 19 20
22 23 22 21 21 23 24 32 23 21 16 24 13 17 11 3 9 22 28 30 29 26 23 21 18 18 20
21 22 21 20 18 18 20 28 30 26 17 17 9 20 14 6 4 9 20 26 27 24 25 18 16 17 19
22 21 18 16 14 15 16 18 19 15 12 17 20 15 18 9 6 7 9 16 21 24 24 24 24 24 25
20 16 13 12 12 13 13 13 10 8 12 15 17 15 13 10 8 11 11 7 23 23 21 20 20 20 21
13 13 12 12 12 14 14 16 8 12 11 10 10 10 8 10 6 9 15 10 8 10 12 15 18 20 23
9 10 12 12 13 15 15 17 14 17 16 16 15 13 8 4 5 9 9 8 8 9 11 15 21 19 19
8 9 10 11 12 16 16 16 13 15 16 18 16 8 2 2 1 4 5 4 5 5 7 11 18 23 23

GFSFLT2_925_spd_261.txt.gz
Wind_Speed
27 28 24 24 27 34 37 34 33 33 32 33 34 33 33 32 32 31 30 29 32 35 32 25 24 22 22
23 24 28 30 26 26 30 35 36 36 34 34 34 35 35 35 35 35 35 35 34 34 36 35 31 27 25
17 22 24 23 25 23 22 22 25 27 29 29 31 33 35 34 35 35 37 38 37 37 37 38 37 36 29
17 17 22 25 22 21 21 23 24 25 26 27 27 27 30 31 33 34 36 38 40 40 40 40 40 39 37
16 15 13 12 20 20 22 21 22 23 24 26 27 28 29 31 31 33 33 35 37 40 41 40 41 42 41
17 16 19 20 21 22 20 12 4 19 24 28 26 28 31 33 32 31 33 34 33 35 38 40 41 41 41
22 20 20 29 26 22 23 20 16 18 17 17 23 25 26 28 27 28 28 28 29 31 34 37 38 40 40
27 28 28 23 24 24 24 22 19 20 20 9 20 25 29 29 27 27 27 27 26 28 31 33 36 38 39
20 18 18 18 18 21 21 18 9 12 19 17 15 23 26 27 28 26 26 26 26 26 27 30 32 36 34
18 20 20 19 20 21 23 20 13 5 14 14 13 12 5 10 14 16 17 20 23 23 23 25 30 32 32
15 18 19 20 21 21 21 22 21 20 11 14 8 11 9 5 7 12 14 15 17 18 20 22 27 31 28
17 19 19 20 19 19 19 20 21 22 20 19 10 14 10 4 6 7 11 13 15 17 17 20 23 25 28
20 20 17 18 17 18 18 17 16 16 16 17 18 17 16 8 3 4 5 6 10 12 12 16 18 21 14
18 15 16 16 15 17 16 15 12 10 10 13 16 16 12 11 11 9 8 4 5 6 11 12 13 18 20
14 14 14 15 17 17 15 14 10 8 10 10 11 11 11 9 7 7 7 5 4 3 4 7 11 13 15
9 11 15 16 16 16 15 14 15 12 12 13 13 9 5 2 4 5 5 5 4 3 4 5 10 11 14
8 9 11 12 13 15 15 14 13 13 13 14 16 9 4 4 1 4 5 6 5 4 5 7 10 12 13

GFSFLT2_925_spd_267.txt.gz
Wind_Speed
22 28 26 36 37 34 31 29 29 29 28 28 29 28 27 26 25 24 23 23 25 27 28 29 31 31 31
18 19 23 29 32 36 35 35 34 35 32 31 30 30 29 28 28 28 29 29 30 30 30 31 31 32 34
12 17 20 24 24 25 28 34 35 35 32 31 28 28 30 31 32 32 33 35 34 36 36 37 37 37 36
16 17 18 20 26 24 21 27 29 29 29 30 30 32 32 33 34 34 35 35 36 37 38 38 38 38 38
16 15 17 15 24 25 23 27 27 24 23 24 27 28 29 29 31 32 32 32 33 33 34 35 36 37 37
22 22 23 24 26 23 23 13 6 25 25 23 22 23 23 24 25 23 24 25 27 28 29 30 32 33 35
30 26 26 29 29 27 26 23 17 18 24 17 23 22 21 22 21 21 21 22 22 24 25 27 29 31 32
35 32 31 32 37 38 35 26 15 17 18 9 16 17 16 16 18 18 18 21 25 25 26 27 28 28 29
38 31 32 31 34 27 24 23 6 9 19 11 11 12 10 14 15 18 21 21 21 22 23 24 25 26 28
39 32 34 33 32 33 35 23 11 5 18 17 13 9 3 9 12 14 13 11 11 13 16 18 19 22 24
33 34 35 34 36 32 29 31 26 8 13 21 13 13 10 5 7 9 12 15 16 16 17 19 20 21 21
30 29 29 30 34 29 24 22 18 17 17 17 8 18 12 6 6 9 14 14 15 16 18 19 19 18 17
31 29 34 35 31 27 24 21 19 17 15 15 17 17 16 10 5 8 7 8 12 16 15 12 14 14 13
31 33 39 34 31 28 24 24 20 16 14 15 16 17 16 16 14 11 11 5 6 12 14 13 10 8 5
35 38 33 31 28 27 25 23 13 15 15 13 12 13 13 11 9 11 11 10 10 10 8 7 6 6 8
35 36 32 29 28 25 22 21 20 18 19 18 16 12 6 4 8 8 8 7 9 6 4 4 5 5 6
28 31 29 25 24 21 17 17 15 16 16 18 18 11 3 3 3 8 7 7 6 3 5 5 8 9 11

GFSFLT2_925_spd_270.txt.gz
Wind_Speed
31 27 36 36 35 34 33 32 31 32 33 31 30 27 26 24 22 21 21 23 23 24 25 25 27 28 27
26 31 28 39 40 38 36 34 33 33 33 32 30 28 27 27 27 25 22 22 23 23 23 25 27 28 29
14 24 24 30 34 37 38 36 35 34 34 33 29 28 27 27 27 27 27 27 27 26 27 29 30 31 33
21 20 23 26 27 26 25 35 39 37 35 36 33 30 28 27 26 28 28 28 28 29 30 32 33 34 34
17 15 19 19 27 26 23 20 26 33 35 35 33 31 30 29 30 30 29 28 30 31 31 31 31 31 32
18 22 23 26 27 25 23 14 7 28 31 31 29 29 30 28 26 23 22 21 22 24 25 25 26 27 29
33 28 26 30 33 28 26 24 20 21 31 25 26 26 23 20 18 19 18 19 19 19 20 21 23 25 26
40 31 31 33 37 39 36 28 16 19 25 12 23 25 22 20 18 17 15 16 16 18 20 23 24 24 25
41 36 34 35 35 30 24 24 7 14 29 17 16 16 16 16 14 13 13 14 17 18 17 17 18 19 19
40 38 38 34 35 35 32 26 16 6 24 21 20 15 6 15 16 17 16 14 11 9 10 14 17 19 20
36 34 37 36 37 41 37 35 28 9 26 29 17 19 7 7 10 14 13 11 10 10 13 14 17 19 20
33 32 32 33 35 38 38 38 37 32 28 37 16 21 15 8 6 12 13 12 9 10 13 14 17 18 16
30 31 34 33 34 38 39 39 31 21 27 32 21 23 18 14 9 11 9 9 9 9 11 9 15 16 15
33 32 32 39 40 44 37 34 31 25 27 23 20 17 18 17 16 13 13 6 6 6 11 12 12 9 6
27 31 33 35 31 41 40 39 21 24 22 19 18 18 15 14 12 12 12 11 11 11 10 10 7 4 4
35 34 33 33 33 35 42 32 28 23 24 26 23 18 9 6 9 10 11 10 9 8 6 5 4 4 4
32 31 32 31 35 28 31 31 24 25 25 29 26 16 3 3 4 11 10 11 10 7 5 5 5 4 8

GFSFLT2_925_spd_273.txt.gz
Wind_Speed
30 25 43 44 44 42 41 37 34 33 34 33 33 31 29 27 26 27 27 27 29 27 26 26 27 26 25
26 30 29 44 44 42 42 41 39 34 35 36 35 33 32 29 28 27 27 27 26 27 27 25 26 26 27
18 28 27 38 38 40 39 40 40 36 36 38 36 35 33 31 30 30 30 28 26 26 27 26 26 27 28
22 22 27 28 35 31 26 36 40 38 35 38 37 35 33 31 31 31 32 31 30 29 29 28 28 29 29
21 18 21 20 28 27 29 28 31 38 37 35 36 34 34 33 32 31 30 30 31 30 29 29 29 28 29
26 25 22 26 28 26 26 16 4 35 34 32 39 38 38 36 35 32 30 28 28 28 27 28 27 26 25
18 30 24 32 31 28 28 28 21 22 33 23 32 37 40 36 33 30 27 25 24 23 21 19 19 19 20
37 40 42 43 45 45 41 26 14 17 28 12 25 33 33 30 26 24 23 22 21 19 18 17 17 19 20
39 38 39 45 46 32 27 24 7 13 30 18 18 21 22 25 22 21 20 20 18 15 15 16 16 15 13
38 40 41 42 41 45 37 27 16 6 25 23 20 17 6 17 23 24 22 20 17 15 14 12 11 12 13
35 39 40 45 44 42 43 38 27 17 23 34 21 23 8 9 20 23 21 18 16 15 12 10 11 11 12
35 32 36 37 40 42 37 40 38 35 28 45 20 30 18 9 8 21 19 17 15 13 10 9 10 7 9
36 30 33 35 34 37 35 39 34 34 30 42 34 39 37 19 15 18 19 15 14 11 9 9 9 6 8
32 35 36 36 38 47 37 38 33 24 28 37 35 32 24 22 25 24 16 11 18 13 11 9 7 7 9
32 26 33 34 32 42 36 34 26 24 23 23 26 28 27 24 15 21 21 15 15 15 10 8 6 4 5
32 28 30 33 29 30 37 33 24 25 26 32 32 27 21 11 15 23 20 19 17 13 10 7 6 7 6
35 28 30 30 30 29 29 29 23 27 31 38 35 24 5 2 7 20 22 20 18 14 11 9 5 7 6

GFSFLT2_925_spd_276.txt.gz
Wind_Speed
29 33 41 44 45 44 45 45 41 39 39 38 38 38 41 39 38 36 34 33 34 33 30 28 28 26 25
25 27 31 46 49 48 47 45 43 40 39 37 36 38 38 39 39 37 36 34 33 32 33 31 30 29 28
21 30 29 39 35 43 40 46 47 43 39 39 39 38 39 37 37 35 34 33 33 32 31 31 30 29 27
28 31 32 32 37 35 28 35 42 46 42 41 40 41 42 38 36 36 34 33 32 31 30 30 30 29 28
24 22 21 22 31 30 29 29 30 39 42 43 43 44 43 40 38 37 35 34 34 32 31 29 29 28 28
24 17 26 29 28 28 30 18 8 34 33 33 41 39 46 43 42 38 36 34 33 33 33 32 30 29 29
26 23 11 30 31 30 30 30 25 24 34 25 35 33 42 43 41 39 36 33 32 32 32 31 30 29 29
37 33 26 18 37 42 40 32 23 23 32 17 26 31 32 39 40 38 36 34 33 32 32 31 28 26 23
33 30 33 34 27 35 32 26 12 13 33 22 19 21 27 35 37 36 34 32 31 30 28 26 24 22 18
27 33 37 38 33 45 40 30 18 6 25 20 20 18 6 19 25 26 27 27 28 28 26 24 23 19 16
26 29 32 31 33 49 47 40 28 10 28 32 18 21 6 8 19 26 29 30 30 27 25 23 20 17 14
25 28 28 25 39 46 46 47 46 40 31 46 24 28 16 8 7 25 28 28 28 27 24 20 18 16 13
26 28 30 32 29 38 35 39 36 39 36 42 38 36 34 17 15 22 29 26 27 27 24 20 16 14 12
29 31 32 33 34 37 36 41 36 30 33 38 39 35 40 32 31 27 28 21 32 27 23 19 16 14 11
35 32 30 31 33 43 38 33 26 22 23 30 33 35 31 30 19 27 36 23 38 30 24 20 16 13 11
36 33 33 29 30 29 35 35 26 25 23 29 31 23 18 10 19 33 30 28 35 29 24 18 14 13 11
35 34 34 34 31 23 28 29 23 25 28 35 33 28 8 3 7 31 33 34 34 27 22 17 13 16 14